Back to catalog

ZHUHAI-1 03E

AliveScienceSSO
NORAD 44539·PAYLOAD·🇨🇳 China

Launched Sep 19, 2019 from Jiuquan Satellite Launch Center

Loading…

Next Passes (next 24 hours)

TLE

FreshSource: Space-Track

Epoch: Sep 14, 2026, 13:52 UTC

1 44539U 19060F   26257.57791331  .00014824  00000-0  33017-3 0  9995
2 44539  97.5730  50.8739 0006418  65.3554 294.8361 15.43698613389545

Track ZHUHAI-1 03E in real time with AllMySat

Download on the App Store